This is the latest recevied weather packets stored in our database for station/object KLIT. If no packets are shown the sender has not sent any weather packets the latest 1 day(s).
| Time | Temp. | Humidity | Pressure | Rain* | Wind** | Luminosity | Snow |
|---|---|---|---|---|---|---|---|
| 1778094215 | 10.56° C | 87% | 1016.9 hPa | 2.03 mm | - | - | - |
| 1778090738 | 10.56° C | 87% | 1017.3 hPa | 3.56 mm | - | - | - |
| 1778090013 | 10.56° C | 81% | 1017.3 hPa | - | - | - | - |
| 1778089414 | 10.56° C | 81% | 1016.6 hPa | - | - | - | - |
| 1778088817 | 11.67° C | 76% | 1015.9 hPa | - | - | - | - |
| 1778087618 | 11.67° C | 76% | 1016.3 hPa | - | - | - | - |
| 1778087016 | 11.67° C | 76% | 1016.3 hPa | - | - | - | - |
| 1778084616 | 10.56° C | 81% | 1015.9 hPa | - | - | - | - |
| 1778084016 | 10.56° C | 81% | 1015.9 hPa | - | - | - | - |
| 1778083538 | 10.56° C | 81% | 1015.9 hPa | - | - | - | - |
| 1778082214 | 10.56° C | 81% | 1015.9 hPa | - | - | - | - |
| 1778081615 | 10.56° C | 81% | 1015.9 hPa | - | - | - | - |
| 1778081016 | 10.56° C | 81% | 1015.9 hPa | - | - | - | - |
| 1778080415 | 10.56° C | 81% | 1015.9 hPa | - | - | - | - |
| 1778078015 | 10° C | 93% | 1015.9 hPa | 1.02 mm | - | - | - |
| 1778077411 | 10° C | 93% | 1015.9 hPa | 1.02 mm | - | - | - |
| 1778075613 | 10° C | 93% | 1015.2 hPa | 1.02 mm | - | - | - |
| 1778075012 | 10° C | 93% | 1015.2 hPa | 1.02 mm | - | - | - |
| 1778070812 | 10° C | 93% | 1014.2 hPa | - | - | - | - |
| 1778067813 | 10° C | 93% | 1012.2 hPa | - | - | - | - |
| 1778063613 | 10.56° C | 87% | 1011.2 hPa | - | - | - | - |
| 1778063015 | 10.56° C | 87% | 1011.2 hPa | - | - | - | - |
| 1778061216 | 10.56° C | 93% | 1011.5 hPa | 1.52 mm | - | - | - |
| 1778060738 | 10.56° C | 93% | 1011.5 hPa | 1.52 mm | - | - | - |
| 1778059413 | 10.56° C | 93% | 1012.2 hPa | - | - | - | - |
* Rain latest hour (hover to see other rain measurements)
** Current wind speed in m/s (hover to see current wind gust speed)